Location: Grasslands National Park East Block
(49.0708°N, 106.5295°W)
Time: 20:33:09
(UTC-06:00)

SR - Pass Details

Date: 21 October 2019
Orbit: 574 x 882 km, 66.7° (Epoch: 16 November)

Event Time Altitude Azimuth Distance (km) Brightness Sun altitude
Exits shadow 05:09:26 - 334° (NNW) 2,700 ? -24.6°
Reaches altitude 10° 05:10:14 10° 339° (NNW) 2,488 ? -24.4°
Maximum altitude 05:14:33 21° 27° (NNE) 1,867 ? -23.7°
Drops below altitude 10° 05:18:57 10° 75° (ENE) 2,542 ? -23.0°
Sets 05:22:07 0° 91° (E) 3,479 ? -22.5°
